OK2ARM-6 Weather Reports


time (UTC)temp
C
wind
direction
speed
KPH
gust
KPH
rain 1hr
cm
rain 24hr
cm
rain mn
cm
humidity
%
barometer
mb
20260506144648 24 0.0 0.0 0.00 0.00 0.00 100 1005.6
20260506143647 22 0.0 0.0 0.00 0.00 0.00 100 1005.8
20260506141423 21 0.0 0.0 0.00 0.00 0.00 100 1006.1
20260506140423 21 0.0 0.0 0.00 0.00 0.00 100 1006.0
20260506135423 22 0.0 0.0 0.00 0.00 0.00 100 1006.1
20260506134423 22 0.0 0.0 0.00 0.00 0.00 100 1006.3
20260506133423 24 0.0 0.0 0.00 0.00 0.00 100 1006.3
20260506132423 21 0.0 0.0 0.00 0.00 0.00 100 1006.6
20260506131423 22 0.0 0.0 0.00 0.00 0.00 100 1006.5
20260506130423 24 0.0 0.0 0.00 0.00 0.00 100 1006.8
20260506125423 23 0.0 0.0 0.00 0.00 0.00 100 1006.8
20260506124423 23 0.0 0.0 0.00 0.00 0.00 100 1007.0
20260506123423 24 0.0 0.0 0.00 0.00 0.00 100 1007.1
20260506122423 24 0.0 0.0 0.00 0.00 0.00 100 1007.2
20260506121424 24 0.0 0.0 0.00 0.00 0.00 100 1007.3
20260506120423 22 0.0 0.0 0.00 0.00 0.00 100 1007.4
20260506115423 23 0.0 0.0 0.00 0.00 0.00 100 1007.4
20260506114423 23 0.0 0.0 0.00 0.00 0.00 100 1007.4
20260506112159 22 0.0 0.0 0.00 0.00 0.00 100 1007.4
20260506111159 22 0.0 0.0 0.00 0.00 0.00 100 1007.5
20260506110159 21 0.0 0.0 0.00 0.00 0.00 100 1007.7
20260506105159 21 0.0 0.0 0.00 0.00 0.00 100 1007.8
20260506104159 21 0.0 0.0 0.00 0.00 0.00 100 1007.8
20260506100712 22 0.0 0.0 0.00 0.00 0.00 100 1008.1
20260506095712 22 0.0 0.0 0.00 0.00 0.00 100 1008.3
20260506094712 20 0.0 0.0 0.00 0.00 0.00 100 1008.4
20260506092448 20 0.0 0.0 0.00 0.00 0.00 100 1008.3
20260506091449 19 0.0 0.0 0.00 0.00 0.00 100 1008.3
20260506090448 19 0.0 0.0 0.00 0.00 0.00 100 1008.4
20260506085448 18 0.0 0.0 0.00 0.00 0.00 100 1008.3
20260506084448 18 0.0 0.0 0.00 0.00 0.00 100 1008.3
20260506083448 18 0.0 0.0 0.00 0.00 0.00 100 1008.4
20260506082448 18 0.0 0.0 0.00 0.00 0.00 100 1008.5
20260506081448 18 0.0 0.0 0.00 0.00 0.00 8 1008.6
20260506072959 16 0.0 0.0 0.00 0.00 0.00 5 1008.5
20260506071959 16 0.0 0.0 0.00 0.00 0.00 23 1008.7
20260506070959 16 0.0 0.0 0.00 0.00 0.00 22 1008.7
20260506061735 15 0.0 0.0 0.00 0.00 0.00 47 1008.5
20260506060735 14 0.0 0.0 0.00 0.00 0.00 64 1008.5
20260506045024 10 0.0 0.0 0.00 0.00 0.00 100 1007.9
20260506044025 10 0.0 0.0 0.00 0.00 0.00 100 1007.9
20260506043025 10 0.0 0.0 0.00 0.00 0.00 100 1007.9
20260506040800 9 0.0 0.0 0.00 0.00 0.00 100 1007.6
20260506035800 9 0.0 0.0 0.00 0.00 0.00 100 1007.5
20260506034800 9 0.0 0.0 0.00 0.00 0.00 100 1007.4
20260506033800 9 0.0 0.0 0.00 0.00 0.00 100 1007.4
20260506032800 10 0.0 0.0 0.00 0.00 0.00 100 1007.2
20260506031800 10 0.0 0.0 0.00 0.00 0.00 100 1007.3
20260506030800 10 0.0 0.0 0.00 0.00 0.00 100 1007.3
20260506025800 10 0.0 0.0 0.00 0.00 0.00 100 1007.3
20260506024800 11 0.0 0.0 0.00 0.00 0.00 100 1007.4
20260506023801 11 0.0 0.0 0.00 0.00 0.00 100 1007.3
20260506022800 11 0.0 0.0 0.00 0.00 0.00 100 1007.3
20260506021800 11 0.0 0.0 0.00 0.00 0.00 100 1007.3
20260506020800 12 0.0 0.0 0.00 0.00 0.00 100 1007.3
20260506015800 12 0.0 0.0 0.00 0.00 0.00 100 1007.3
20260506014800 12 0.0 0.0 0.00 0.00 0.00 100 1007.3
20260506011313 12 0.0 0.0 0.00 0.00 0.00 77 1006.7
20260506010313 12 0.0 0.0 0.00 0.00 0.00 57 1006.5
20260506005313 13 0.0 0.0 0.00 0.00 0.00 35 1006.4
20260506004314 13 0.0 0.0 0.00 0.00 0.00 4 1006.6
20260506003313 13 0.0 0.0 0.00 0.00 0.00 11 1006.8
20260506002313 13 0.0 0.0 0.00 0.00 0.00 100 1007.0
20260506000050 13 0.0 0.0 0.00 0.00 0.00 100 1006.5
20260505235049 13 0.0 0.0 0.00 0.00 0.00 100 1006.4
20260505232826 14 0.0 0.0 0.00 0.00 0.00 100 1006.1
20260505231827 14 0.0 0.0 0.00 0.00 0.00 100 1006.4
20260505225602 15 0.0 0.0 0.00 0.00 0.00 100 1006.2
20260505224602 15 0.0 0.0 0.00 0.00 0.00 100 1006.2
20260505222339 15 0.0 0.0 0.00 0.00 0.00 100 1006.0
20260505221339 15 0.0 0.0 0.00 0.00 0.00 100 1006.0
20260505220338 15 0.0 0.0 0.00 0.00 0.00 100 1006.0
20260505215339 15 0.0 0.0 0.00 0.00 0.00 100 1005.9
20260505214339 15 0.0 0.0 0.00 0.00 0.00 100 1005.7
20260505210851 15 0.0 0.0 0.00 0.00 0.00 100 1005.5
20260505205851 15 0.0 0.0 0.00 0.00 0.00 100 1005.6
20260505204851 15 0.0 0.0 0.00 0.00 0.00 100 1005.6
20260505203851 16 0.0 0.0 0.00 0.00 0.00 100 1005.7
20260505202851 16 0.0 0.0 0.00 0.00 0.00 100 1005.7
20260505201852 16 0.0 0.0 0.00 0.00 0.00 100 1005.6
20260505200851 16 0.0 0.0 0.00 0.00 0.00 100 1005.7
20260505195851 16 0.0 0.0 0.00 0.00 0.00 100 1005.7
20260505194852 16 0.0 0.0 0.00 0.00 0.00 100 1005.6
20260505193851 17 0.0 0.0 0.00 0.00 0.00 100 1005.7
20260505192852 17 0.0 0.0 0.00 0.00 0.00 100 1005.6
20260505191851 17 0.0 0.0 0.00 0.00 0.00 100 1005.5
20260505190851 17 0.0 0.0 0.00 0.00 0.00 100 1005.5
20260505184627 18 0.0 0.0 0.00 0.00 0.00 100 1005.5
20260505182403 20 0.0 0.0 0.00 0.00 0.00 100 1005.3
20260505181403 20 0.0 0.0 0.00 0.00 0.00 100 1005.3
20260505180403 20 0.0 0.0 0.00 0.00 0.00 100 1005.2
20260505175403 21 0.0 0.0 0.00 0.00 0.00 100 1005.2
20260505174403 21 0.0 0.0 0.00 0.00 0.00 100 1005.2
20260505173403 22 0.0 0.0 0.00 0.00 0.00 100 1005.1
20260505172403 22 0.0 0.0 0.00 0.00 0.00 100 1005.1
20260505171404 22 0.0 0.0 0.00 0.00 0.00 100 1005.0
20260505170404 22 0.0 0.0 0.00 0.00 0.00 100 1005.0
20260505164141 23 0.0 0.0 0.00 0.00 0.00 100 1005.1
20260505161916 26 0.0 0.0 0.00 0.00 0.00 100 1005.3
20260505160916 26 0.0 0.0 0.00 0.00 0.00 100 1005.3
20260505152916 28 0.0 0.0 0.00 0.00 0.00 100 1005.6
20260505151916 28 0.0 0.0 0.00 0.00 0.00 100 1005.8